User: anonymous
Location: Columbus
(29.5618°N, 96.6770°W)
Time: 03:25:50
(UTC-05:00)
Language:

Iridium 59 - Orbit

View from above orbital plane
View from above orbital plane
View from above satellite
View from above satellite

Ground track
Ground track

The orbit data is extracted from the following two-line orbital elements,

1 25275U 98019D   14204.46213344  .00000003  00000-0 -60717-5 0  4306
2 25275 086.3967 010.3192 0002078 105.7869 254.3556 14.34217112854172
Epoch (UTC): 23 July 2014 11:05:28
Eccentricity: 0.0002078
inclination: 86.3967°
perigee height: 776 km
apogee height: 779 km
right ascension of ascending node: 10.3192°
argument of perigee: 105.7869°
revolutions per day: 14.34217112
mean anomaly at epoch: 254.3556°
orbit number at epoch: 85417

The dashed part of the orbit path shows where the satellite is in the earth's shadow,  

DLR